Vorticity
nan nan nan nan nan nan nan nan nan nan nan nan nan nan nan nan nan nan nan nan nan nan nan nan nan nan nan nan nan nan nan nan nan nan nan nan nan nan nan nan nan nan nan nan nan nan nan nan nan nan nan nan nan nan
nan 8 9 10 10 11 12 11 11 12 11 12 13 13 13 12 10 8 7 10 11 5 5 11 12 17 12 7 11 10 15 13 10 11 11 10 10 10 10 13 13 10 9 13 16 12 13 4 7 7 6 7 12 nan
nan 8 10 11 10 11 11 10 11 12 10 10 11 11 12 13 9 3 9 13 9 10 12 12 11 12 11 12 7 7 7 10 10 8 11 10 9 11 10 10 14 12 10 8 7 4 2 9 17 12 6 18 22 nan
nan 8 10 11 10 11 12 10 10 12 11 10 11 12 12 13 9 4 8 8 7 8 13 16 12 6 9 9 5 8 7 6 9 9 9 11 10 10 11 9 11 10 12 13 9 1 13 19 14 9 12 17 12 nan
nan 9 11 11 10 10 12 11 10 12 12 10 12 15 13 11 9 8 10 9 10 10 10 17 19 11 8 0 7 7 12 14 14 11 8 11 14 8 9 10 10 11 15 13 9 9 19 10 9 20 19 13 18 nan
nan 9 11 11 11 11 11 12 11 11 12 11 12 15 14 11 7 10 14 15 9 9 11 11 14 17 10 7 10 9 12 13 12 13 12 12 12 8 9 9 9 12 14 16 10 9 15 14 8 21 24 15 15 nan
nan 9 11 12 12 12 11 12 12 11 11 12 12 12 12 11 6 5 9 11 11 15 12 10 11 12 9 13 13 16 10 8 11 10 12 14 13 10 7 4 4 15 14 14 17 18 10 13 14 10 12 17 16 nan
nan 9 11 12 12 12 11 14 12 11 12 12 12 13 15 10 10 15 16 8 9 12 11 11 11 11 9 11 14 12 11 13 11 7 9 14 11 10 6 7 10 9 12 11 15 20 14 10 10 14 12 11 14 nan
nan 10 10 12 12 12 12 12 13 12 13 14 13 13 13 11 17 16 13 10 9 11 13 10 8 11 12 10 13 12 10 9 12 11 12 11 11 7 5 9 10 8 8 11 10 9 12 16 14 11 11 11 11 nan
nan 10 10 12 12 12 13 13 13 13 14 14 13 13 11 14 15 8 5 9 13 11 9 5 10 11 12 11 10 9 12 12 12 10 11 11 11 8 7 13 12 6 7 8 8 10 11 11 13 13 10 13 14 nan
nan 10 11 11 12 13 14 14 14 13 12 12 8 8 16 11 4 8 12 12 10 10 13 9 6 11 14 11 12 10 12 13 11 13 9 8 9 12 12 10 11 11 8 7 9 9 8 11 10 9 11 14 12 nan
nan 10 11 12 14 16 15 16 8 -0 1 11 15 14 9 10 11 8 11 15 10 11 8 7 11 17 14 13 13 11 11 11 7 10 12 12 12 9 9 9 12 10 9 9 7 9 11 9 8 11 10 11 11 nan
nan 10 11 13 22 23 19 16 1 1 14 13 10 12 7 7 13 16 6 8 8 8 10 12 17 17 9 11 11 11 12 8 12 13 11 8 7 9 10 9 9 14 13 9 7 8 9 11 11 8 10 9 10 nan
nan 11 13 19 19 17 17 13 11 10 13 12 11 10 11 10 9 6 9 12 14 14 7 11 14 13 15 13 9 13 13 8 11 13 11 10 13 12 11 8 8 10 14 15 8 10 11 9 10 11 13 9 9 nan
nan 12 25 20 5 13 22 24 13 3 9 13 10 10 11 3 6 15 14 8 11 13 17 17 18 15 12 8 10 14 12 15 13 8 10 15 13 12 9 8 10 9 15 13 11 10 8 9 11 11 13 13 11 nan
nan 24 25 9 12 21 21 13 7 8 11 13 11 8 11 8 8 10 14 14 12 11 15 13 14 12 12 13 13 10 11 11 8 10 14 13 10 11 8 11 12 9 10 10 12 11 11 10 9 11 12 13 14 nan
nan 30 14 4 13 20 7 8 13 9 9 11 10 7 12 14 9 11 11 14 13 15 12 14 16 12 10 11 11 10 9 7 7 13 18 10 8 8 9 10 10 13 11 9 11 8 10 11 9 9 8 12 15 nan
nan 12 2 -1 12 16 13 11 8 13 13 10 8 8 9 18 13 11 12 14 13 14 16 16 13 10 10 11 9 10 11 10 11 15 13 8 6 10 10 9 10 14 11 10 7 11 12 11 11 11 10 11 11 nan
nan 6 7 11 14 9 17 12 9 12 11 11 12 12 11 15 13 11 11 11 13 19 14 8 8 11 11 8 9 12 12 13 15 13 7 10 10 9 14 12 14 16 12 10 7 9 15 9 10 11 11 12 12 nan
nan 21 22 22 11 7 12 10 10 10 11 12 13 9 10 12 14 13 10 10 15 13 8 10 11 12 15 13 14 12 10 14 10 7 16 16 12 13 9 9 15 18 13 10 9 13 11 9 15 12 10 12 12 nan
nan 17 18 17 7 6 10 15 9 8 12 11 12 14 16 10 9 12 12 14 11 10 15 12 13 11 12 11 11 14 19 17 14 12 11 8 13 14 8 14 20 17 17 7 15 20 1 11 14 8 8 13 14 nan
nan 10 8 10 11 15 9 10 6 14 14 12 10 12 13 11 13 12 15 12 7 15 12 10 10 13 13 8 14 13 16 12 15 16 18 12 4 11 13 11 11 13 18 22 10 12 20 5 4 13 13 11 9 nan
nan 10 11 9 12 10 13 12 15 10 8 11 15 13 12 12 12 11 15 11 12 12 10 9 12 13 6 12 16 16 12 8 10 15 15 11 17 14 8 13 14 13 9 7 16 19 8 14 13 9 14 12 10 nan
nan 12 16 14 10 8 14 12 11 9 11 10 10 13 11 14 14 13 11 11 15 14 10 10 11 15 22 12 6 14 10 15 17 14 11 11 15 16 13 7 6 15 15 14 13 16 16 11 11 10 11 12 11 nan
nan 15 14 10 15 14 12 14 12 9 8 12 13 14 12 12 11 13 10 9 11 9 9 13 18 16 13 9 13 17 8 11 18 17 16 16 14 6 10 15 12 12 11 7 16 27 19 4 14 17 7 12 9 nan
nan 16 10 14 12 10 10 13 13 7 11 16 13 11 10 10 16 11 8 10 13 13 11 12 13 13 12 14 13 10 14 19 19 17 14 11 13 15 15 17 17 5 12 19 16 10 12 15 12 13 15 12 13 nan
nan 15 7 6 10 14 12 10 10 13 14 14 11 10 14 13 13 13 13 10 10 12 13 15 14 15 13 13 14 14 16 14 17 16 13 10 12 16 15 14 10 10 13 14 16 14 16 19 12 10 15 9 8 nan
nan 15 18 11 8 8 8 12 16 14 12 12 13 12 10 14 16 14 14 14 12 8 11 13 11 11 13 15 17 15 12 10 7 7 9 15 12 10 11 13 7 11 13 15 30 20 7 10 12 12 12 11 13 nan
nan 13 12 12 11 10 14 12 14 14 11 13 14 16 17 16 17 12 10 13 13 10 9 11 15 13 9 8 10 10 13 19 17 6 7 13 13 12 13 13 10 12 14 7 5 12 13 11 13 16 13 10 11 nan
nan 13 11 11 12 9 12 11 12 13 11 19 22 15 14 10 10 15 11 10 11 9 9 12 13 13 13 13 9 10 14 15 14 20 19 10 13 13 11 10 13 14 13 13 13 9 9 14 10 8 10 11 11 nan
nan 14 9 11 17 13 9 14 14 12 14 10 9 15 15 13 9 10 11 14 14 13 11 9 9 11 14 14 18 17 10 13 13 11 17 19 14 13 10 11 12 11 12 11 10 10 14 14 12 14 11 12 11 nan
nan 10 11 10 13 17 13 11 11 14 13 9 10 14 11 13 14 13 14 13 10 6 11 18 13 13 14 14 14 10 16 19 14 15 16 16 16 12 10 13 12 10 11 14 12 10 12 13 13 11 9 9 10 nan
nan nan nan nan nan nan nan nan nan nan nan nan nan nan nan nan nan nan nan nan nan nan nan nan nan nan nan nan nan nan nan nan nan nan nan nan nan nan nan nan nan nan nan nan nan nan nan nan nan nan nan nan nan nan
CAPE
0 0 0 0 0 2 3 2 6 7 0 1 0 0 0 0 0 2 10 10 13 14 2 3 2 7 18 20 29 24 39 44 13 55 82 108 103 124 26 31 118 73 108 142 114 109 119 47 47 31 33 0 0 9
0 0 0 0 0 1 2 2 4 7 0 0 0 0 0 0 0 0 11 10 12 4 1 0 0 0 1 5 30 7 51 22 11 21 33 26 62 74 45 70 23 103 115 91 106 59 79 43 17 8 2 16 10 62
0 0 0 0 0 2 2 0 3 5 0 0 0 0 0 0 0 0 10 6 6 2 5 37 18 0 1 4 7 33 52 45 37 32 20 14 32 25 79 52 48 18 8 17 10 9 27 21 5 24 29 25 68 13
0 0 0 0 0 1 1 1 2 3 0 0 0 0 0 0 0 0 5 10 13 17 38 18 0 12 0 6 5 13 22 31 53 72 51 37 49 18 37 40 12 18 15 21 14 8 9 14 27 28 50 54 47 7
0 0 0 0 0 2 0 0 1 1 1 0 0 0 0 0 0 0 5 10 16 11 176 143 23 20 0 15 35 47 22 16 88 93 84 50 21 9 13 19 9 27 28 17 28 12 25 10 24 45 48 26 16 17
0 0 0 0 0 1 0 0 0 1 1 0 0 0 0 0 0 12 8 7 15 14 16 264 185 59 12 10 3 60 12 25 33 44 36 59 60 58 64 32 40 46 34 49 12 21 18 30 21 10 45 46 28 3
0 0 0 0 0 0 0 0 0 0 0 0 0 0 0 0 2 7 8 1 0 11 9 83 511 419 26 19 45 2 21 51 49 55 47 29 40 71 67 82 62 43 33 43 34 27 13 18 29 18 6 10 21 8
0 0 0 0 0 0 1 1 0 1 1 0 0 0 0 0 0 1 2 0 0 8 20 180 342 454 184 261 106 0 47 39 39 58 47 37 38 45 91 46 57 43 40 16 17 36 25 29 28 29 33 26 10 11
0 0 0 0 0 0 0 1 0 0 1 1 0 0 3 0 5 2 0 0 11 7 15 108 632 289 224 147 72 37 19 100 28 37 36 22 46 71 85 33 60 24 43 43 19 14 15 16 32 33 26 23 24 24
0 0 0 0 0 0 0 1 0 0 0 0 0 4 15 6 0 0 0 6 5 6 9 323 301 492 198 238 107 52 41 38 44 45 25 45 6 51 31 45 88 53 32 35 42 31 23 17 20 18 15 31 35 35
0 0 0 0 0 0 0 1 0 0 0 0 58 165 2 0 5 3 269 316 256 234 398 388 206 421 199 360 65 54 35 16 5 82 38 78 50 66 30 39 45 37 28 35 42 39 36 35 23 24 19 26 25 20
0 0 0 0 0 0 1 1 0 0 0 3 0 0 2 4 192 214 84 51 106 122 76 74 81 273 389 281 141 93 31 55 55 27 42 26 108 47 25 29 32 31 35 24 23 20 22 23 28 42 29 25 17 15
0 0 0 0 0 1 0 0 1 0 0 0 14 172 355 143 106 46 237 238 54 53 34 56 44 471 171 125 74 176 87 127 42 28 113 67 84 73 41 22 26 30 31 40 40 24 30 31 19 31 26 45 29 30
0 0 0 0 0 0 0 0 0 0 0 201 314 269 103 87 83 83 87 80 77 3 19 62 101 583 468 385 302 212 104 35 61 139 51 136 218 68 67 36 40 37 36 37 52 50 33 55 28 30 29 14 16 28
0 0 0 0 0 0 0 1 0 0 0 209 151 100 71 76 91 134 100 186 162 216 145 94 70 188 310 94 85 6 45 80 69 68 116 147 168 118 89 42 38 38 42 51 29 14 42 29 18 22 36 32 9 18
0 0 0 0 0 0 0 1 2 0 73 137 148 100 102 86 166 184 347 179 251 204 144 51 162 47 16 15 10 6 14 17 125 223 119 277 239 139 61 84 52 65 48 59 72 70 47 57 37 36 38 36 31 22
0 0 0 0 0 0 0 0 30 84 201 190 165 82 69 360 177 298 339 482 306 245 184 150 83 6 23 7 7 14 30 167 151 79 121 256 141 125 65 58 63 76 67 59 65 51 48 56 44 35 33 37 34 50
0 0 0 0 0 0 0 0 236 195 269 338 211 174 204 209 305 361 504 202 154 132 141 151 48 132 117 91 99 143 225 248 180 92 107 174 150 128 107 61 45 71 71 80 48 60 45 58 48 27 27 29 26 28
0 0 0 0 0 0 31 336 277 194 304 242 199 167 327 833 880 570 203 116 49 48 174 145 116 151 164 165 224 256 260 150 71 86 78 124 89 72 44 39 42 56 71 118 99 52 52 30 36 34 32 29 32 28
0 0 0 0 1 59 8 235 614 436 468 511 328 351 439 674 585 365 296 122 148 99 195 183 169 285 250 399 399 265 253 252 93 149 175 48 52 20 51 16 52 91 119 102 75 2 76 63 55 45 29 31 42 41
0 0 0 0 0 42 171 186 396 415 346 310 383 497 460 474 315 273 122 136 255 101 123 157 187 267 210 361 188 171 185 238 173 178 237 74 28 41 41 40 54 44 67 107 105 69 8 55 64 46 32 35 50 61
25 0 145 11 328 533 529 481 642 740 568 517 504 533 490 359 369 249 183 90 99 102 101 108 172 213 160 144 117 219 288 246 289 132 16 7 30 54 65 78 92 97 170 169 181 105 126 79 53 63 67 60 28 15
0 0 320 328 468 518 239 439 402 509 513 519 542 336 372 338 349 343 126 83 121 72 85 137 205 338 482 236 408 147 188 186 182 84 42 54 27 28 50 74 77 60 169 152 66 106 127 0 19 64 89 89 69 78
0 172 183 319 578 453 486 525 538 582 679 551 366 339 402 400 379 142 84 97 73 84 102 151 159 223 173 243 61 66 91 63 68 44 51 44 39 11 48 96 88 101 89 102 90 80 135 145 7 101 93 93 82 84
3 0 3 0 280 442 327 341 454 545 577 500 423 328 355 453 328 118 50 55 73 82 90 84 71 70 65 81 47 45 25 21 55 75 103 45 5 19 121 42 121 59 69 157 217 178 66 125 179 148 106 93 107 78
0 0 0 1 35 194 284 198 305 398 462 449 452 580 517 350 186 133 70 133 152 112 95 31 21 28 8 1 0 0 0 6 37 41 20 42 43 99 152 148 84 79 84 100 260 151 151 96 166 130 59 20 4 38
0 1 104 100 355 373 384 476 515 485 470 460 429 519 334 144 141 140 128 59 51 10 0 0 0 0 0 0 0 0 0 6 12 34 33 45 48 58 83 33 77 83 74 141 183 204 151 138 155 119 60 85 78 82
0 39 73 262 209 302 400 515 493 498 451 443 475 411 269 217 229 75 25 7 0 0 0 0 0 0 0 0 0 0 2 5 14 20 18 27 37 33 41 36 19 0 8 46 68 127 161 120 51 98 116 72 79 56
9 48 141 381 423 426 497 522 417 641 595 488 499 455 445 221 42 0 0 0 0 0 0 0 0 0 0 0 0 0 0 0 17 43 43 19 23 29 41 41 52 55 30 4 0 0 16 35 53 62 55 65 49 55
2 58 284 282 281 287 409 563 579 845 903 722 654 414 186 35 0 0 0 0 0 0 0 0 0 0 0 0 0 0 0 0 0 11 37 15 14 17 28 28 26 29 29 23 24 16 0 17 21 52 49 31 39 30
98 178 193 200 161 263 739 841 768 700 674 665 512 546 146 0 0 0 0 0 0 0 0 0 0 0 0 0 0 0 0 0 0 0 0 5 11 21 19 20 28 38 26 24 31 36 37 35 42 50 44 39 33 16
352 390 404 393 319 324 596 586 678 687 656 432 346 150 21 0 0 0 0 0 0 0 0 0 0 0 0 0 0 0 0 0 0 0 0 4 11 10 16 23 24 24 20 28 33 23 27 29 32 16 27 25 13 20
386 419 447 424 326 686 644 505 399 446 249 218 138 60 208 122 47 0 0 0 0 0 0 0 0 0 0 0 0 0 0 0 0 0 0 0 0 0 2 15 14 18 21 22 21 19 21 23 15 15 9 10 12 16